Regional Weather Roundup
Issued by NWS Charleston, SC

Current Version | Previous Version | Text Only | Print | Product List | Glossary Off
Versions: 1 2 3 4 5 6 7 8 9 10 11 12 13 14 15 16 17 18 19 20 21 22 23 24 25 26 27 28 29 30 31 32 33 34 35 36 37 38 39 40 41 42 43 44 45 46 47 48 49 50
000 ASUS42 KCHS 041613 RWRCHS REGIONAL WEATHER ROUNDUP NATIONAL WEATHER SERVICE CHARLESTON SC 1200 PM EDT WED MAY 04 2016 NOTE: "FAIR" INDICATES FEW OR NO CLOUDS BELOW 12,000 FEET WITH NO SIGNIFICANT WEATHER AND/OR OBSTRUCTIONS TO VISIBILITY. NOT ALL STATIONS ARE QUALITY CONTROLLED. USE DATA WITH CAUTION... ESPECIALLY DEWPOINT OBSERVATIONS. SCZ027-030-031-034>040-042>050-041700- ...SOUTHEAST SOUTH CAROLINA... CITY SKY/WX TMP DP RH WIND PRES REMARKS N CHARLESTON MOSUNNY 77 53 43 W9 29.71F WATERFRONT PRK N/A 74 57 55 NW7 29.69F MOUNT PLEASANT FAIR 77 57 50 W9 29.71S JOHNS ISLAND FAIR 77 57 50 W12 29.72S PINOPOLIS N/A 75 55 50 W7 29.65R MONCKS CORNER FAIR 73 48 40 NW5 29.71F SUMMERVILLE FAIR 77 54 44 W9 29.73S BEAUFORT MCAS MOSUNNY 77 55 46 W8 29.74F BEAUFORT ARPT FAIR 77 54 44 W14G20 29.74S HILTON HEAD IS MOSUNNY 81 57 44 NW8 29.76F WALTERBORO MOSUNNY 79 52 38 W12G17 29.74F ALLENDALE FAIR 73 48 40 VRB5G13 29.74F ...SOUTHERN MIDLANDS AND PEE DEE... CITY SKY/WX TMP DP RH WIND PRES REMARKS GEORGETOWN FAIR 77 59 53 W13 29.70F KINGSTREE FAIR 73 52 46 SW8G16 29.70R ORANGEBURG SUNNY 75 48 38 W14 29.72S BARNWELL FAIR 75 50 41 W9 29.75S AIKEN FAIR 70 43 37 NW10 29.79R MANNING FAIR 73 52 46 NW7 29.71R COLUMBIA MOSUNNY 74 49 41 NW8 29.72R SUMTER MOSUNNY 74 53 48 SW5 29.69R FLORENCE MOSUNNY 75 57 53 NW8 29.69S MYRTLE BEACH MOSUNNY 79 59 50 W9 29.69F N MYRTLE BEACH MOSUNNY 76 66 71 S12 29.67S $$ GAZ063-065-086>088-099>101-113>116-118-119-134>141-150-041700- ...SOUTHEAST GEORGIA... CITY SKY/WX TMP DP RH WIND PRES REMARKS SAVANNAH ARPT MOSUNNY 76 52 43 W14 29.76F HUNTER AAF SUNNY 76 58 53 W15 29.74S FORT STEWART SUNNY 75 51 43 W12G20 29.76S STATESBORO SUNNY 77 55 45 NW14 29.78S SYLVANIA SUNNY 74 53 47 NW10 29.77F CLAXTON FAIR 74 53 48 SW8 29.78F ...CSRA...CENTRAL AND FAR SOUTHEAST GEORGIA... CITY SKY/WX TMP DP RH WIND PRES REMARKS THOMSON SUNNY 71 46 40 NW9G17 29.82S AUGUSTA-BUSH SUNNY 72 45 37 W9G16 29.75S AUGUSTA-DANIEL SUNNY 72 44 36 W9G17 29.77R SWAINSBORO FAIR 72 43 35 W8 29.80S VIDALIA SUNNY 72 48 43 NW12 29.80F EASTMAN FAIR 72 48 43 W7 29.84S HAZLEHURST FAIR 74 49 40 NW8 29.80F ALMA SUNNY 74 52 46 W12 29.80F WAYCROSS SUNNY 75 56 52 N8 29.80S JESUP FAIR 77 59 53 NW10G16 29.79F BAXLEY FAIR 75 52 43 NW7 29.79F BRUNSWICK MOSUNNY 81 61 50 NW10 29.78F SAINT SIMONS SUNNY 77 60 55 W10G22 29.76F $$ SCZ027-028-034-036>038-045-046-048>050-GAZ119-141-041700- ...LAKE AND SUPPLEMENTAL COASTAL OBSERVATIONS... STATION/POSITION TIME TEMP WIND PRES WAVE SWELL AIR SEA DIR/SP/G HT/PER HT/PER/DIR (UTC) (F) (DEG/KT/KT) (MB) (FT/S) (FT/S/D) WINYAH BAY 1445 71 250/ 6 1005.0 LAKE MURRAY 1500 69 270/ 4/ 6 1006.1F ACE BASIN NERRS NOT AVBL FORT PULASKI 1500 71 75 290/ 12/ 15 1008.0S SAPELO ISLAND 1500 75 300/ 9 1008.0S $$ ANZ835-935-AMZ111-154-330-350-352-354-370-450-454-472-041700- ...C-MAN AND BUOY OBSERVATIONS... STATION/POSITION TIME TEMP WIND PRES WAVE SWELL AIR SEA DIR/SP/G HT/PER HT/PER/DIR (UTC) (F) (DEG/KT/KT) (MB) (FT/S) (FT/S/D) BUOY 41004 1550 72 74 280/ 12/ 14 1005.8S 3/ 7 2/ 7 BUOY 41008 NOT AVBL FOLLY BEACH CMAN 1600 76 280/ 6/ 9 1006.4F CAPERS NEARSHORE 1508 72 71 280/ 12/ 16 1006.0R FRIPP NEARSHORE 1508 72 72 300/ 12/ 16 1006.7S STATION/POSITION TIME TEMP WIND PRES WAVE SWELL AIR SEA DIR/SP/G HT/PER HT/PER/DIR (UTC) (F) (DEG/KT/KT) (MB) (FT/S) (FT/S/D) 5E ST. MARYS GA 1521 72 N/A 2/ 7 FRYING PAN BUOY 1500 73 73 250/ 14/ 17 1004.9F BUOY 41025 1550 69 71 210/ 19/ 23 1004.7R 3/ 8 2/180/ 8 CAPE LOOKOUT NC 1600 68 210/ 6/ 9 1004.0F BUOY 41002 1550 72 74 160/ 16/ 17 1007.9R 5/ 6 2/340/11 BUOY 41010 1520 79 78 240/ 21/ 25 1009.5R ST AUGUSTINE FL 1600 74 71 240/ 5/ 6 1009.2F $$

USA.gov is the U.S. government's official web portal to all federal, state and local government web resources and services.